EW4931 Weather Reports


time (UTC)temp
C
wind
direction
speed
KPH
gust
KPH
rain 1hr
cm
rain 24hr
cm
rain mn
cm
humidity
%
barometer
mb
20260507113324 13 203 8.0 22.5 0.00 0.00 0.00 28 1015.9
20260507112604 12 111 11.3 22.5 0.00 0.00 0.00 29 1015.9
20260507112327 12 54 8.0 14.5 0.00 0.00 0.00 29 1015.9
20260507111603 12 137 4.8 19.3 0.00 0.00 0.00 29 1015.9
20260507111103 11 165 9.7 19.3 0.00 0.00 0.00 28 1016.0
20260507110604 12 110 12.9 17.7 0.00 0.00 0.00 28 1015.9
20260507110328 12 62 4.8 19.3 0.00 0.00 0.00 28 1015.8
20260507105603 12 149 9.7 19.3 0.00 0.00 0.00 27 1015.9
20260507105104 12 207 6.4 14.5 0.00 0.00 0.00 27 1015.8
20260507104829 12 141 4.8 14.5 0.00 0.00 0.00 28 1015.9
20260507104104 12 138 6.4 19.3 0.00 0.00 0.00 27 1015.8
20260507103603 12 179 8.0 19.3 0.00 0.00 0.00 28 1015.7
20260507103104 12 152 8.0 19.3 0.00 0.00 0.00 28 1015.7
20260507102603 11 203 6.4 19.3 0.00 0.00 0.00 27 1015.7
20260507102103 12 185 8.0 14.5 0.00 0.00 0.00 26 1015.7
20260507101603 12 148 8.0 16.1 0.00 0.00 0.00 28 1015.7
20260507101103 11 162 9.7 16.1 0.00 0.00 0.00 27 1015.7
20260507100823 11 128 6.4 17.7 0.00 0.00 0.00 27 1015.6
20260507100105 11 83 12.9 17.7 0.00 0.00 0.00 27 1015.7
20260507095824 11 137 8.0 19.3 0.00 0.00 0.00 27 1015.6
20260507095104 11 55 9.7 19.3 0.00 0.00 0.00 27 1015.5
20260507094830 11 80 6.4 16.1 0.00 0.00 0.00 28 1015.6
20260507094104 11 45 4.8 19.3 0.00 0.00 0.00 28 1015.5
20260507093604 11 141 9.7 20.9 0.00 0.00 0.00 29 1015.5
20260507093324 11 125 11.3 20.9 0.00 0.00 0.00 28 1015.5
20260507092604 11 154 8.0 17.7 0.00 0.00 0.00 29 1015.5
20260507092103 11 78 9.7 16.1 0.00 0.00 0.00 29 1015.5
20260507091820 11 110 9.7 16.1 0.00 0.00 0.00 28 1015.5
20260507091104 11 97 8.0 17.7 0.00 0.00 0.00 30 1015.4
20260507090604 11 90 11.3 17.7 0.00 0.00 0.00 28 1015.5
20260507090103 11 97 8.0 14.5 0.00 0.00 0.00 29 1015.4
20260507085604 11 73 4.8 19.3 0.00 0.00 0.00 29 1015.4
20260507085104 11 117 12.9 19.3 0.00 0.00 0.00 28 1015.3
20260507084604 11 127 3.2 16.1 0.00 0.00 0.00 29 1015.4
20260507084104 11 80 6.4 16.1 0.00 0.00 0.00 29 1015.4
20260507083604 11 180 6.4 14.5 0.00 0.00 0.00 29 1015.4
20260507083104 11 72 8.0 14.5 0.00 0.00 0.00 29 1015.4
20260507083049 11 99 3.2 6.4 0.00 0.00 0.00 29 1015.4
20260507082104 11 259 4.8 8.0 0.00 0.00 0.00 29 1015.3
20260507081603 11 196 4.8 8.0 0.00 0.00 0.00 27 1015.3
20260507081103 11 185 3.2 6.4 0.00 0.00 0.00 29 1015.3
20260507080604 11 172 4.8 9.7 0.00 0.00 0.00 29 1015.2
20260507080104 11 148 6.4 9.7 0.00 0.00 0.00 30 1015.3
20260507075604 11 121 4.8 9.7 0.00 0.00 0.00 32 1015.3
20260507075104 10 180 1.6 9.7 0.00 0.00 0.00 32 1015.3
20260507074603 10 173 6.4 9.7 0.00 0.00 0.00 32 1015.3
20260507074103 10 214 3.2 8.0 0.00 0.00 0.00 36 1015.1
20260507073603 10 289 1.6 6.4 0.00 0.00 0.00 35 1015.2
20260507073103 10 175 4.8 6.4 0.00 0.00 0.00 33 1015.2
20260507072603 10 266 4.8 6.4 0.00 0.00 0.00 35 1015.2
20260507072103 10 196 4.8 6.4 0.00 0.00 0.00 33 1015.2
20260507071604 10 200 3.2 9.7 0.00 0.00 0.00 34 1015.2
20260507071103 10 207 4.8 9.7 0.00 0.00 0.00 37 1015.3
20260507070603 9 207 4.8 8.0 0.00 0.00 0.00 37 1015.2
20260507065603 9 158 6.4 14.5 0.00 0.00 0.00 38 1015.3
20260507065104 9 134 6.4 14.5 0.00 0.00 0.00 37 1015.2
20260507064824 10 83 3.2 8.0 0.00 0.00 0.00 36 1015.2
20260507064104 9 128 3.2 8.0 0.00 0.00 0.00 40 1015.2
20260507063604 8 175 3.2 9.7 0.00 0.00 0.00 37 1015.2
20260507063104 8 149 6.4 11.3 0.00 0.00 0.00 36 1015.2
20260507062604 8 137 9.7 11.3 0.00 0.00 0.00 39 1015.2
20260507062104 8 121 1.6 8.0 0.00 0.00 0.00 44 1015.2
20260507061829 8 173 3.2 8.0 0.00 0.00 0.00 45 1015.1
20260507061103 8 195 4.8 9.7 0.00 0.00 0.00 46 1015.1
20260507060604 8 162 4.8 9.7 0.00 0.00 0.00 49 1015.1
20260507060103 7 135 3.2 11.3 0.00 0.00 0.00 52 1015.1
20260507055830 7 110 8.0 11.3 0.00 0.00 0.00 52 1015.1
20260507055103 7 161 4.8 8.0 0.00 0.00 0.00 54 1015.0
20260507055054 7 127 4.8 8.0 0.00 0.00 0.00 60 1014.9
20260507054104 7 217 3.2 8.0 0.00 0.00 0.00 62 1015.0
20260507053603 7 199 4.8 8.0 0.00 0.00 0.00 69 1015.0
20260507053102 6 124 3.2 6.4 0.00 0.00 0.00 72 1015.0
20260507052603 6 135 6.4 6.4 0.00 0.00 0.00 73 1014.9
20260507052325 6 175 3.2 6.4 0.00 0.00 0.00 75 1015.0
20260507051604 6 147 3.2 8.0 0.00 0.00 0.00 77 1014.9
20260507051324 5 125 6.4 9.7 0.00 0.00 0.00 78 1014.9
20260507050603 5 154 8.0 9.7 0.00 0.00 0.00 78 1014.8
20260507045602 5 148 8.0 9.7 0.00 0.00 0.00 80 1014.9
20260507045548 5 128 3.2 6.4 0.00 0.00 0.00 81 1014.8
20260507044603 5 62 4.8 6.4 0.00 0.00 0.00 81 1014.9
20260507044325 5 47 3.2 4.8 0.00 0.00 0.00 83 1014.9
20260507043604 4 47 3.2 3.2 0.00 0.00 0.00 84 1014.9
20260507043103 3 47 1.6 3.2 0.00 0.00 0.00 87 1014.9
20260507042604 3 47 0.0 3.2 0.00 0.00 0.00 89 1014.9
20260507042103 2 162 1.6 3.2 0.00 0.00 0.00 89 1014.9
20260507041604 2 162 3.2 3.2 0.00 0.00 0.00 90 1014.9
20260507041103 2 162 1.6 3.2 0.00 0.00 0.00 90 1014.9
20260507040603 1 162 1.6 3.2 0.00 0.00 0.00 91 1014.8
20260507040103 1 162 1.6 3.2 0.00 0.00 0.00 92 1014.8
20260507035603 1 162 1.6 3.2 0.00 0.00 0.00 92 1014.7
20260507035103 0 162 1.6 3.2 0.00 0.00 0.00 90 1014.7
20260507034603 0 162 3.2 3.2 0.00 0.00 0.00 90 1014.7
20260507034103 0 162 0.0 0.0 0.00 0.00 0.00 91 1014.7
20260507033832 0 162 0.0 1.6 0.00 0.00 0.00 91 1014.7
20260507033103 0 162 0.0 1.6 0.00 0.00 0.00 91 1014.7
20260507032604 0 162 0.0 3.2 0.00 0.00 0.00 91 1014.5
20260507032104 0 162 1.6 3.2 0.00 0.00 0.00 91 1014.6
20260507031605 0 162 1.6 1.6 0.00 0.00 0.00 91 1014.6
20260507031104 0 162 1.6 1.6 0.00 0.00 0.00 91 1014.5
20260507030604 0 162 1.6 1.6 0.00 0.00 0.00 91 1014.5
20260507030104 0 162 0.0 0.0 0.00 0.00 0.00 91 1014.4
20260507025604 0 162 0.0 0.0 0.00 0.00 0.00 91 1014.4
20260507025104 0 162 0.0 0.0 0.00 0.00 0.00 91 1014.4
20260507024603 -1 162 0.0 0.0 0.00 0.00 0.00 90 1014.4
20260507024104 -1 162 0.0 0.0 0.00 0.00 0.00 90 1014.4
20260507023826 0 162 0.0 0.0 0.00 0.00 0.00 90 1014.5
20260507023103 0 162 0.0 0.0 0.00 0.00 0.00 90 1014.5
20260507022603 0 162 0.0 0.0 0.00 0.00 0.00 90 1014.5
20260507022103 0 162 0.0 0.0 0.00 0.00 0.00 90 1014.4
20260507021604 0 162 0.0 0.0 0.00 0.00 0.00 90 1014.4
20260507021103 0 162 0.0 3.2 0.00 0.00 0.00 90 1014.4
20260507020603 0 162 0.0 3.2 0.00 0.00 0.00 90 1014.4
20260507020104 0 162 3.2 3.2 0.00 0.00 0.00 90 1014.4
20260507015602 0 162 0.0 0.0 0.00 0.00 0.00 89 1014.4
20260507015323 0 162 0.0 0.0 0.00 0.00 0.00 89 1014.3
20260507014603 0 162 0.0 0.0 0.00 0.00 0.00 88 1014.3
20260507014326 0 162 0.0 0.0 0.00 0.00 0.00 88 1014.3
20260507013603 0 162 0.0 0.0 0.00 0.00 0.00 88 1014.3
20260507013104 0 162 0.0 0.0 0.00 0.00 0.00 88 1014.3
20260507012604 0 162 0.0 0.0 0.00 0.00 0.00 88 1014.3
20260507012104 0 162 0.0 0.0 0.00 0.00 0.00 87 1014.2
20260507011604 0 162 0.0 0.0 0.00 0.00 0.00 87 1014.3
20260507011103 0 162 0.0 0.0 0.00 0.00 0.00 86 1014.2
20260507010604 0 162 0.0 0.0 0.00 0.00 0.00 85 1014.3
20260507010104 1 162 0.0 0.0 0.00 0.00 0.00 86 1014.2
20260507005604 1 162 0.0 3.2 0.00 0.00 0.00 86 1014.2
20260507005105 1 162 1.6 3.2 0.00 0.00 0.00 86 1014.1
20260507004603 1 162 3.2 3.2 0.00 0.00 0.00 85 1014.1
20260507004324 1 162 0.0 1.6 0.00 0.00 0.00 84 1014.2
20260507003604 1 162 0.0 1.6 0.00 0.00 0.00 85 1014.1
20260507003325 1 162 1.6 3.2 0.00 0.00 0.00 85 1014.1
20260507002829 1 162 1.6 3.2 0.00 0.00 0.00 84 1014.0
20260507002103 1 162 1.6 3.2 0.00 0.00 0.00 85 1014.0
20260507001604 1 162 1.6 3.2 0.00 0.00 0.00 85 1013.9
20260507001103 1 162 1.6 4.8 0.00 0.00 0.00 85 1013.8
20260507000603 1 162 3.2 4.8 0.00 0.00 0.00 86 1013.7
20260507000104 1 162 3.2 4.8 0.00 0.00 0.00 86 1013.7
20260506235603 1 162 3.2 4.8 0.00 0.00 0.00 87 1013.8
20260506235103 1 162 3.2 4.8 0.00 0.00 0.00 87 1013.8
20260506234604 1 162 3.2 4.8 0.00 0.00 0.00 87 1013.8
20260506234547 0 162 3.2 3.2 0.00 0.00 0.00 86 1013.8
20260506233603 0 162 1.6 3.2 0.00 0.00 0.00 85 1013.8
20260506233103 0 162 0.0 1.6 0.00 0.00 0.00 86 1014.0
20260506232603 1 162 1.6 1.6 0.00 0.00 0.00 85 1013.9
20260506232104 1 162 0.0 1.6 0.00 0.00 0.00 85 1013.9
20260506232041 1 162 0.0 3.2 0.00 0.00 0.00 85 1013.9
20260506231103 0 162 1.6 3.2 0.00 0.00 0.00 84 1013.9
20260506230603 1 162 0.0 3.2 0.00 0.00 0.00 83 1013.9
20260506230103 1 162 0.0 0.0 0.00 0.00 0.00 84 1013.9
20260506225603 1 162 0.0 0.0 0.00 0.00 0.00 83 1013.9
20260506225103 1 162 0.0 0.0 0.00 0.00 0.00 83 1013.9
20260506224826 1 162 0.0 0.0 0.00 0.00 0.00 82 1013.8
20260506224333 1 162 0.0 0.0 0.00 0.00 0.00 82 1013.9
20260506223604 1 162 0.0 0.0 0.00 0.00 0.00 82 1013.8
20260506223325 1 162 0.0 0.0 0.00 0.00 0.00 80 1013.8
20260506222604 1 162 0.0 0.0 0.00 0.00 0.00 80 1013.8
20260506222322 1 162 0.0 0.0 0.00 0.00 0.00 79 1013.8
20260506221604 2 162 0.0 0.0 0.00 0.00 0.00 79 1013.8
20260506221326 2 162 0.0 0.0 0.00 0.00 0.00 78 1013.9
20260506220604 2 162 0.0 1.6 0.00 0.00 0.00 78 1013.8
20260506220104 2 162 0.0 1.6 0.00 0.00 0.00 78 1013.8
20260506215603 2 162 1.6 3.2 0.00 0.00 0.00 78 1013.8
20260506215322 2 162 1.6 4.8 0.00 0.00 0.00 78 1013.7
20260506214604 2 162 3.2 4.8 0.00 0.00 0.00 77 1013.8
20260506214104 2 162 1.6 3.2 0.00 0.00 0.00 77 1013.8
20260506213603 2 162 1.6 3.2 0.00 0.00 0.00 76 1013.7
20260506213549 2 162 0.0 4.8 0.00 0.00 0.00 76 1013.7
20260506212803 2 162 1.6 4.8 0.00 0.00 0.00 76 1013.6
20260506212048 2 162 1.6 1.6 0.00 0.00 0.00 76 1013.7
20260506211103 2 162 1.6 3.2 0.00 0.00 0.00 75 1013.7
20260506210603 2 162 1.6 3.2 0.00 0.00 0.00 75 1013.8
20260506205602 2 162 3.2 4.8 0.00 0.00 0.00 74 1013.8
20260506205103 2 162 3.2 3.2 0.00 0.00 0.00 74 1013.8
20260506204603 2 162 3.2 3.2 0.00 0.00 0.00 72 1013.8
20260506204105 3 162 0.0 0.0 0.00 0.00 0.00 72 1013.7
20260506203605 3 162 0.0 0.0 0.00 0.00 0.00 72 1013.7
20260506203105 3 162 0.0 1.6 0.00 0.00 0.00 71 1013.7
20260506202605 3 162 0.0 3.2 0.00 0.00 0.00 71 1013.7
20260506202104 3 162 1.6 3.2 0.00 0.00 0.00 70 1013.8
20260506201605 3 162 1.6 3.2 0.00 0.00 0.00 70 1013.8
20260506201105 3 162 1.6 3.2 0.00 0.00 0.00 70 1013.8
20260506200605 3 162 1.6 3.2 0.00 0.00 0.00 69 1013.8
20260506200105 3 162 1.6 1.6 0.00 0.00 0.00 68 1013.7
20260506195605 3 162 1.6 1.6 0.00 0.00 0.00 67 1013.8
20260506195307 3 162 1.6 3.2 0.00 0.00 0.00 67 1013.8
20260506194105 4 162 3.2 3.2 0.00 0.00 0.00 66 1013.8
20260506193604 4 162 1.6 4.8 0.00 0.00 0.00 65 1013.9
20260506193105 4 162 1.6 4.8 0.00 0.00 0.00 65 1013.8
20260506192605 5 162 1.6 3.2 0.00 0.00 0.00 64 1013.9
20260506192104 5 162 0.0 3.2 0.00 0.00 0.00 63 1013.9
20260506191605 5 162 1.6 3.2 0.00 0.00 0.00 62 1013.9
20260506191105 5 162 1.6 3.2 0.00 0.00 0.00 61 1013.8
20260506190605 5 162 1.6 6.4 0.00 0.00 0.00 60 1013.9
20260506190517 5 162 4.8 6.4 0.00 0.00 0.00 60 1013.9
20260506185531 6 162 1.6 4.8 0.00 0.00 0.00 59 1013.9
20260506185030 6 162 3.2 4.8 0.00 0.00 0.00 59 1013.8
20260506184755 6 161 3.2 4.8 0.00 0.00 0.00 58 1013.9
20260506184030 6 161 3.2 4.8 0.00 0.00 0.00 57 1013.8
20260506183530 6 161 1.6 6.4 0.00 0.00 0.00 56 1013.8
20260506183030 6 154 3.2 9.7 0.00 0.00 0.00 55 1013.7
20260506182530 6 120 4.8 9.7 0.00 0.00 0.00 54 1013.8
20260506182250 7 148 3.2 6.4 0.00 0.00 0.00 54 1013.8
20260506181529 7 162 3.2 9.7 0.00 0.00 0.00 53 1013.7
20260506181029 7 166 6.4 9.7 0.00 0.00 0.00 52 1013.7
20260506180531 7 151 3.2 14.5 0.00 0.00 0.00 51 1013.6
20260506180030 7 142 9.7 14.5 0.00 0.00 0.00 50 1013.5
20260506175529 7 197 8.0 11.3 0.00 0.00 0.00 50 1013.6
20260506175029 7 125 8.0 11.3 0.00 0.00 0.00 49 1013.6
20260506174529 7 138 6.4 14.5 0.00 0.00 0.00 48 1013.6
20260506174029 7 125 8.0 14.5 0.00 0.00 0.00 47 1013.6
20260506173528 8 166 4.8 11.3 0.00 0.00 0.00 47 1013.6
20260506173028 8 164 6.4 11.3 0.00 0.00 0.00 47 1013.6
20260506172528 8 171 4.8 16.1 0.00 0.00 0.00 46 1013.5
20260506172028 8 200 11.3 16.1 0.00 0.00 0.00 45 1013.6
20260506172008 8 193 6.4 8.0 0.00 0.00 0.00 45 1013.6
20260506171028 8 135 4.8 8.0 0.00 0.00 0.00 45 1013.7
20260506170528 8 178 4.8 11.3 0.00 0.00 0.00 46 1013.7
20260506170029 8 197 8.0 11.3 0.00 0.00 0.00 46 1013.5
20260506165528 8 147 4.8 19.3 0.00 0.00 0.00 47 1013.5
20260506165028 8 202 8.0 19.3 0.00 0.00 0.00 47 1013.5
20260506164528 8 166 12.9 20.9 0.00 0.00 0.00 46 1013.5
20260506164514 9 162 9.7 20.9 0.00 0.00 0.00 45 1013.5
20260506163527 9 162 6.4 19.3 0.00 0.00 0.00 46 1013.5
20260506163027 9 172 14.5 19.3 0.00 0.00 0.00 45 1013.4
20260506162527 10 169 3.2 14.5 0.00 0.00 0.00 44 1013.4
20260506162247 10 195 8.0 14.5 0.00 0.00 0.00 43 1013.3
20260506161527 10 264 3.2 9.7 0.00 0.00 0.00 45 1013.3
20260506161248 10 151 3.2 11.3 0.00 0.00 0.00 45 1013.3
20260506160526 10 175 6.4 16.1 0.00 0.00 0.00 45 1013.3
20260506160027 9 130 6.4 17.7 0.00 0.00 0.00 48 1013.4
20260506155526 9 164 6.4 22.5 0.00 0.00 0.00 46 1013.3
20260506155026 10 133 9.7 22.5 0.00 0.00 0.00 46 1013.3
20260506154526 10 300 3.2 14.5 0.00 0.00 0.00 49 1013.3
20260506154026 10 158 8.0 19.3 0.00 0.00 0.00 48 1013.3
20260506153526 10 161 8.0 19.3 0.00 0.00 0.00 45 1013.3
20260506153026 10 227 6.4 14.5 0.00 0.00 0.00 43 1013.4
20260506152527 10 196 8.0 17.7 0.00 0.00 0.00 40 1013.4
20260506152249 10 245 6.4 17.7 0.00 0.00 0.00 40 1013.4
20260506151525 11 206 4.8 9.7 0.00 0.00 0.00 42 1013.3
20260506151025 11 178 4.8 9.7 0.00 0.00 0.00 38 1013.4
20260506151013 10 192 3.2 19.3 0.00 0.00 0.00 40 1013.3
20260506150026 10 149 11.3 19.3 0.00 0.00 0.00 40 1013.3
20260506145525 10 161 3.2 17.7 0.00 0.00 0.00 39 1013.3
20260506145244 10 178 12.9 19.3 0.00 0.00 0.00 38 1013.2
20260506144525 10 173 8.0 20.9 0.00 0.00 0.00 37 1013.4
20260506144025 10 124 11.3 20.9 0.00 0.00 0.00 34 1013.4
20260506143524 10 206 6.4 14.5 0.00 0.00 0.00 35 1013.4
20260506143025 11 183 8.0 17.7 0.00 0.00 0.00 37 1013.5
20260506142525 10 176 4.8 24.1 0.00 0.00 0.00 38 1013.4
20260506142253 10 171 12.9 24.1 0.00 0.00 0.00 35 1013.4
20260506141524 10 131 16.1 24.1 0.00 0.00 0.00 35 1013.4
20260506141025 11 127 12.9 22.5 0.00 0.00 0.00 34 1013.4
20260506140524 10 134 4.8 14.5 0.00 0.00 0.00 36 1013.4
20260506140026 10 175 6.4 20.9 0.00 0.00 0.00 35 1013.3
20260506135524 10 183 11.3 20.9 0.00 0.00 0.00 35 1013.3
20260506135024 10 125 12.9 24.1 0.00 0.00 0.00 36 1013.4
20260506134524 11 144 11.3 24.1 0.00 0.00 0.00 35 1013.3
20260506134024 11 166 4.8 17.7 0.00 0.00 0.00 37 1013.3
20260506133745 10 176 6.4 17.7 0.00 0.00 0.00 38 1013.3
20260506133024 10 148 12.9 17.7 0.00 0.00 0.00 38 1013.3
20260506132523 11 134 9.7 24.1 0.00 0.00 0.00 39 1013.3
20260506132245 10 169 11.3 25.7 0.00 0.00 0.00 38 1013.4
20260506131747 10 202 14.5 25.7 0.00 0.00 0.00 39 1013.4
20260506131023 10 166 9.7 20.9 0.00 0.00 0.00 39 1013.4
20260506130523 10 162 14.5 24.1 0.00 0.00 0.00 37 1013.4
20260506130024 11 116 17.7 24.1 0.00 0.00 0.00 38 1013.3
20260506125523 10 141 11.3 29.0 0.00 0.00 0.00 39 1013.3
20260506125023 10 148 11.3 29.0 0.00 0.00 0.00 38 1013.3
20260506124522 10 175 11.3 25.7 0.00 0.00 0.00 38 1013.4
20260506124023 11 130 12.9 25.7 0.00 0.00 0.00 38 1013.3
20260506123742 11 200 8.0 19.3 0.00 0.00 0.00 39 1013.3
20260506123023 11 142 11.3 17.7 0.00 0.00 0.00 39 1013.2
20260506122744 11 148 6.4 20.9 0.00 0.00 0.00 39 1013.3
20260506122023 11 142 14.5 20.9 0.00 0.00 0.00 38 1013.4
20260506121523 11 118 8.0 22.5 0.00 0.00 0.00 38 1013.4
20260506121024 11 99 12.9 22.5 0.00 0.00 0.00 38 1013.4
20260506120522 11 73 8.0 22.5 0.00 0.00 0.00 39 1013.4
20260506120022 11 155 9.7 19.3 0.00 0.00 0.00 39 1013.4
20260506115750 11 148 8.0 19.3 0.00 0.00 0.00 39 1013.4
20260506115021 10 154 6.4 22.5 0.00 0.00 0.00 40 1013.4
20260506114523 10 106 14.5 22.5 0.00 0.00 0.00 38 1013.4
20260506114506 11 116 14.5 22.5 0.00 0.00 0.00 38 1013.4